{"data":{"norad_id":67182,"intl_designator":"2025-303V","name":"STARLINK-35782","alt_names":[],"object_type":"PAYLOAD","status":"ACTIVE","operator":null,"country":"US","launch_date":"2025-12-17","launch_site_code":"AFETR","launch_vehicle":null,"mission":null,"orbit_class":"UNKNOWN","rcs_meters":null,"size_class":null,"mass_kg":null,"dimensions":null,"purposes":["comms"],"wikipedia_slug":null,"has_3d_model":false,"image_url":null,"decayed_at":null,"tle_current":{"epoch":"2026-09-20T08:58:07.316256Z","epoch_age_seconds":89179,"freshness":"FRESH","line1":"1 67182U 25303V   26263.37369579  .00015249  00000+0  56231-3 0  9995","line2":"2 67182  42.9992 290.8842 0001773 271.5794  88.4855 15.27592103 42512","mean_motion":15.27592103,"eccentricity":0.0001773,"inclination_deg":42.9992,"raan_deg":290.8842,"arg_perigee_deg":271.5794,"mean_anomaly_deg":88.4855,"bstar":0.00056231,"rev_number":4251,"period_min":94.266001845127,"perigee_km":481.79637367351,"apogee_km":484.22933741229,"semimajor_km":6861.1498555429,"source":"CELESTRAK","updated_at":"2026-09-21T09:00:36.132451Z"}}}